WC4PEM-6 Weather Reports


time (UTC)temp
C
wind
direction
speed
KPH
gust
KPH
rain 1hr
cm
rain 24hr
cm
rain mn
cm
humidity
%
barometer
mb
20260504151008 25 11 9.7 22.5 0.00 0.10 0.08 54 1017.1
20260504150508 25 93 8.0 20.9 0.00 0.10 0.08 56 1017.1
20260504141008 23 346 8.0 22.5 0.03 0.13 0.08 58 1016.8
20260504140508 23 344 9.7 20.9 0.03 0.13 0.08 59 1016.9
20260504130508 21 342 4.8 12.9 0.00 0.10 0.05 70 1016.3
20260504130324 21 88 6.4 17.7 0.00 0.10 0.05 72 1016.4
20260504110509 17 16 3.2 8.0 0.00 0.10 0.05 84 1015.3
20260504110338 17 342 6.4 9.7 0.00 0.10 0.05 83 1015.3
20260504100509 17 30 6.4 12.9 0.00 0.10 0.05 83 1015.0
20260504081509 19 51 4.8 8.0 0.00 0.10 0.05 80 1014.8
20260504081009 19 330 4.8 8.0 0.00 0.10 0.05 80 1014.9
20260504080509 19 13 4.8 8.0 0.00 0.10 0.05 80 1015.0
20260504050509 20 9 4.8 8.0 0.00 0.08 0.03 76 1016.4
20260504050009 20 93 4.8 12.9 0.00 0.08 0.03 76 1016.5
20260504045838 20 21 3.2 9.7 0.00 0.08 0.03 76 1016.5
20260504045509 20 21 3.2 9.7 0.00 0.08 0.03 76 1016.5
20260504045009 20 309 3.2 6.4 0.00 0.08 0.03 76 1016.4
20260504044509 20 323 3.2 9.7 0.00 0.08 0.03 76 1016.6
20260504044009 20 55 3.2 9.7 0.00 0.08 0.03 76 1016.5
20260504043944 20 88 3.2 6.4 0.00 0.08 0.03 76 1016.7
20260504043509 20 88 3.2 6.4 0.00 0.08 0.03 76 1016.7
20260504043009 20 26 3.2 6.4 0.00 0.08 0.03 76 1016.6
20260504042509 20 70 3.2 8.0 0.00 0.08 0.03 76 1016.6
20260504042009 20 41 3.2 8.0 0.00 0.08 0.03 76 1016.7
20260504041509 20 51 3.2 6.4 0.00 0.08 0.03 76 1016.9
20260504041009 20 57 3.2 8.0 0.00 0.08 0.03 76 1016.9
20260504040948 20 76 3.2 4.8 0.00 0.08 0.03 76 1016.7
20260504040509 20 317 1.6 9.7 0.00 0.08 0.03 76 1016.7
20260504040009 20 76 3.2 4.8 0.00 0.08 0.03 76 1016.7
20260504035509 20 325 3.2 6.4 0.00 0.08 0.03 76 1016.6
20260504035009 20 88 3.2 9.7 0.00 0.08 0.03 75 1016.7
20260504034509 20 71 3.2 4.8 0.00 0.08 0.03 75 1016.7
20260504034009 20 325 3.2 11.3 0.00 0.10 0.03 75 1016.8
20260504033728 20 26 3.2 9.7 0.00 0.10 0.03 75 1016.7
20260504033509 20 83 3.2 9.7 0.00 0.10 0.03 75 1016.7
20260504033017 20 67 3.2 11.3 0.00 0.10 0.03 75 1016.7
20260504033009 20 26 3.2 9.7 0.00 0.10 0.03 75 1016.7
20260504032509 20 80 3.2 11.3 0.00 0.10 0.03 75 1016.7
20260504032009 20 67 3.2 11.3 0.00 0.10 0.03 75 1016.7
20260504031509 20 93 3.2 11.3 0.00 0.10 0.03 75 1016.7
20260504031140 20 88 3.2 11.3 0.00 0.10 0.03 75 1016.8
20260504031009 20 93 4.8 12.9 0.00 0.10 0.03 75 1016.7
20260504030509 20 88 3.2 11.3 0.00 0.10 0.03 75 1016.8
20260504030010 20 71 3.2 8.0 0.00 0.10 0.03 75 1017.0
20260504025509 20 79 3.2 12.9 0.00 0.10 0.03 75 1016.9
20260504025009 20 88 3.2 11.3 0.00 0.10 0.03 76 1016.7
20260504024509 20 80 3.2 11.3 0.00 0.10 0.03 75 1016.7
20260504024010 20 88 3.2 14.5 0.00 0.10 0.03 75 1016.6
20260504023509 20 282 4.8 9.7 0.00 0.10 0.03 75 1016.6
20260504023009 21 87 4.8 12.9 0.00 0.10 0.03 75 1016.6
20260504022509 20 51 4.8 14.5 0.00 0.10 0.03 75 1016.6
20260504022012 21 334 3.2 9.7 0.00 0.10 0.03 75 1016.6
20260504022010 20 325 4.8 14.5 0.00 0.10 0.03 75 1016.7
20260504021509 21 334 3.2 9.7 0.00 0.10 0.03 75 1016.6
20260504021010 21 79 3.2 9.7 0.00 0.10 0.03 75 1016.5
20260504020510 21 85 3.2 14.5 0.00 0.10 0.03 75 1016.4
20260504020009 21 88 3.2 9.7 0.00 0.10 0.03 75 1016.3
20260504015510 21 88 4.8 14.5 0.00 0.10 0.03 74 1016.3
20260504015010 21 92 3.2 12.9 0.00 0.10 0.03 74 1016.1
20260504014510 21 146 4.8 9.7 0.00 0.10 0.03 74 1016.3
20260504014010 21 90 4.8 14.5 0.00 0.10 0.03 74 1016.5
20260504013510 21 26 4.8 16.1 0.00 0.10 0.03 74 1016.4
20260504013010 21 85 4.8 19.3 0.00 0.10 0.03 74 1016.4
20260504012510 21 90 4.8 12.9 0.00 0.10 0.03 74 1016.3
20260504012010 21 51 4.8 11.3 0.03 0.10 0.03 73 1016.1
20260504011510 21 9 4.8 17.7 0.03 0.10 0.03 73 1016.1
20260504011010 21 9 4.8 9.7 0.03 0.10 0.03 73 1016.2
20260504010510 21 78 4.8 12.9 0.03 0.10 0.03 73 1016.1
20260504010038 21 63 3.2 9.7 0.03 0.10 0.03 73 1015.8
20260504010010 21 76 3.2 11.3 0.03 0.10 0.03 73 1016.0
20260504005510 21 63 3.2 9.7 0.03 0.10 0.03 73 1015.8
20260504005010 21 93 3.2 12.9 0.03 0.10 0.03 73 1015.7
20260504004510 21 90 3.2 9.7 0.03 0.10 0.03 72 1015.6
20260504004010 21 90 4.8 12.9 0.03 0.10 0.03 72 1015.4
20260504003510 21 93 4.8 12.9 0.03 0.10 0.03 72 1015.6
20260504003010 22 93 3.2 14.5 0.03 0.10 0.03 71 1015.5
20260504002510 22 51 4.8 11.3 0.03 0.10 0.03 71 1015.6
20260504002012 22 90 4.8 16.1 0.00 0.08 0.00 71 1015.3
20260504002010 22 93 4.8 17.7 0.00 0.08 0.00 71 1015.4
20260504001510 22 90 4.8 16.1 0.00 0.08 0.00 71 1015.3
20260504001010 22 78 6.4 16.1 0.00 0.08 0.08 71 1015.4
20260504000510 22 76 4.8 14.5 0.00 0.08 0.08 70 1015.3
20260504000010 22 92 4.8 11.3 0.00 0.08 0.08 70 1015.3
20260503235510 22 93 6.4 14.5 0.00 0.08 0.08 70 1015.2
20260503235018 22 108 6.4 19.3 0.00 0.08 0.08 69 1015.1
20260503235010 22 93 6.4 12.9 0.00 0.08 0.08 70 1015.1
20260503234510 22 108 6.4 19.3 0.00 0.08 0.08 69 1015.1
20260503234010 22 65 6.4 19.3 0.00 0.08 0.08 69 1015.1
20260503233510 22 29 6.4 19.3 0.00 0.08 0.08 69 1015.2
20260503233010 22 346 6.4 19.3 0.00 0.08 0.08 69 1015.2
20260503232510 22 84 6.4 14.5 0.00 0.08 0.08 69 1015.1
20260503232010 22 76 8.0 19.3 0.00 0.08 0.08 68 1015.1
20260503231510 23 45 9.7 19.3 0.00 0.08 0.08 69 1015.1
20260503231010 23 71 8.0 19.3 0.00 0.08 0.08 69 1015.0
20260503230510 23 90 6.4 17.7 0.00 0.08 0.08 69 1015.0
20260503230010 23 80 4.8 16.1 0.00 0.08 0.08 68 1014.9
20260503225510 23 84 6.4 11.3 0.00 0.08 0.08 68 1014.8
20260503225010 23 23 8.0 14.5 0.00 0.08 0.08 68 1014.9
20260503224510 23 137 8.0 20.9 0.00 0.08 0.08 68 1014.9
20260503224010 23 67 8.0 19.3 0.00 0.10 0.08 67 1015.0
20260503223510 23 80 6.4 16.1 0.00 0.10 0.08 68 1015.1
20260503223140 23 93 6.4 17.7 0.00 0.10 0.08 66 1015.1
20260503223010 23 212 8.0 17.7 0.00 0.10 0.08 67 1015.1
20260503222510 23 93 6.4 17.7 0.00 0.10 0.08 66 1015.1
20260503222010 23 78 4.8 11.3 0.00 0.10 0.08 66 1014.9
20260503221510 23 93 4.8 14.5 0.00 0.10 0.08 65 1014.9
20260503221010 23 86 4.8 11.3 0.00 0.10 0.08 66 1014.9
20260503220510 23 76 6.4 12.9 0.00 0.10 0.08 66 1014.9
20260503220440 23 88 6.4 12.9 0.00 0.10 0.08 65 1014.8
20260503220010 23 88 6.4 12.9 0.00 0.10 0.08 65 1014.8
20260503215510 23 28 6.4 14.5 0.00 0.10 0.08 66 1014.9
20260503215010 24 79 4.8 19.3 0.00 0.10 0.08 66 1014.9
20260503214510 24 93 4.8 16.1 0.00 0.10 0.08 66 1014.8
20260503214010 24 59 6.4 14.5 0.00 0.10 0.08 65 1014.6
20260503213510 24 72 6.4 14.5 0.00 0.10 0.08 64 1014.6
20260503213236 24 80 6.4 14.5 0.00 0.10 0.08 64 1014.6
20260503213010 24 80 6.4 14.5 0.00 0.10 0.08 64 1014.6
20260503212510 24 67 6.4 14.5 0.00 0.10 0.08 64 1014.7
20260503212010 24 90 4.8 12.9 0.00 0.10 0.08 64 1014.7
20260503211510 24 59 4.8 12.9 0.00 0.10 0.08 63 1014.6
20260503211138 24 93 6.4 14.5 0.00 0.10 0.08 63 1014.7
20260503211010 24 93 6.4 14.5 0.00 0.10 0.08 63 1014.7
20260503210510 24 34 8.0 16.1 0.00 0.10 0.08 64 1014.7
20260503210104 24 93 6.4 17.7 0.00 0.10 0.08 64 1014.7
20260503210010 24 93 6.4 17.7 0.00 0.10 0.08 64 1014.7
20260503205510 24 88 6.4 12.9 0.00 0.10 0.08 65 1014.8
20260503205010 24 93 6.4 14.5 0.00 0.10 0.08 63 1014.7
20260503204510 25 90 6.4 17.7 0.03 0.10 0.08 62 1014.8
20260503204010 25 44 6.4 14.5 0.03 0.13 0.08 62 1014.9
20260503203510 25 84 6.4 14.5 0.03 0.13 0.08 62 1015.0
20260503203010 24 337 6.4 16.1 0.03 0.13 0.08 63 1014.9
20260503202510 24 77 8.0 16.1 0.03 0.13 0.08 63 1015.0
20260503202010 25 92 6.4 17.7 0.03 0.13 0.08 63 1015.1
20260503201510 24 51 6.4 16.1 0.03 0.13 0.08 65 1015.2
20260503201010 24 92 6.4 14.5 0.03 0.13 0.08 63 1015.2
20260503200510 25 88 8.0 16.1 0.03 0.13 0.08 62 1015.3
20260503200010 25 74 6.4 16.1 0.03 0.13 0.08 61 1015.4
20260503195510 25 102 4.8 14.5 0.03 0.13 0.08 62 1015.4
20260503195013 24 87 8.0 17.7 0.00 0.10 0.05 64 1015.6
20260503195010 25 44 6.4 8.0 0.03 0.13 0.08 63 1015.4
20260503194510 24 87 8.0 17.7 0.00 0.10 0.05 64 1015.6
20260503194010 24 92 6.4 17.7 0.00 0.10 0.05 63 1015.7
20260503193510 24 44 4.8 12.9 0.00 0.10 0.05 65 1015.7
20260503193010 24 57 6.4 14.5 0.00 0.10 0.05 65 1015.8
20260503192510 24 84 6.4 19.3 0.00 0.10 0.05 63 1016.0
20260503192010 24 338 4.8 14.5 0.00 0.10 0.05 64 1016.0
20260503191811 24 93 3.2 14.5 0.00 0.10 0.05 65 1016.0
20260503191510 24 93 3.2 14.5 0.00 0.10 0.05 65 1016.0
20260503191010 24 32 4.8 9.7 0.00 0.10 0.05 66 1016.1
20260503190510 24 90 4.8 17.7 0.00 0.10 0.05 66 1016.2
20260503190010 24 93 4.8 12.9 0.00 0.10 0.05 66 1016.1
20260503185510 24 86 6.4 16.1 0.00 0.10 0.05 67 1016.3
20260503185010 24 15 6.4 16.1 0.00 0.10 0.05 67 1016.3
20260503184510 24 82 6.4 16.1 0.00 0.10 0.05 67 1016.3
20260503184010 24 19 6.4 16.1 0.00 0.10 0.05 67 1016.5
20260503183956 24 90 8.0 14.5 0.00 0.10 0.05 66 1016.7
20260503183510 24 90 8.0 14.5 0.00 0.10 0.05 66 1016.7
20260503183010 24 90 6.4 16.1 0.00 0.10 0.05 67 1016.7
20260503182510 24 74 6.4 12.9 0.00 0.10 0.05 67 1016.9
20260503182142 23 93 6.4 20.9 0.00 0.10 0.05 67 1016.9
20260503182010 23 93 6.4 20.9 0.00 0.10 0.05 67 1016.9
20260503181510 23 333 6.4 14.5 0.00 0.10 0.05 69 1016.9
20260503181010 23 195 8.0 19.3 0.00 0.10 0.05 67 1017.0
20260503180510 23 93 8.0 20.9 0.00 0.10 0.05 68 1017.1
20260503180010 23 92 8.0 17.7 0.00 0.10 0.05 69 1017.1
20260503175510 23 84 8.0 19.3 0.00 0.10 0.05 69 1017.3
20260503175010 23 90 6.4 12.9 0.00 0.10 0.05 69 1017.2
20260503174510 23 93 8.0 14.5 0.00 0.10 0.05 68 1017.3
20260503174010 23 48 6.4 20.9 0.00 0.10 0.05 69 1017.3
20260503173510 23 81 6.4 16.1 0.00 0.10 0.05 70 1017.2
20260503173010 23 36 6.4 16.1 0.00 0.10 0.05 69 1017.3
20260503172510 23 90 6.4 19.3 0.00 0.10 0.05 71 1017.2
20260503172011 22 80 8.0 19.3 0.00 0.10 0.05 71 1017.2
20260503171511 22 34 9.7 19.3 0.00 0.10 0.05 70 1017.4
20260503171011 22 90 9.7 20.9 0.00 0.10 0.05 69 1017.6
20260503170511 23 88 8.0 22.5 0.00 0.10 0.05 70 1017.5